Temp
19 19 20 20 20 21 21 22 22 22 23 24 24 25 25 26 26 26 27 27 27 28 28 29 30 30 29 30 30 30 23 26 27 28 29 30 29 28 28 26 26 26 25 24 23
19 19 19 20 20 21 21 22 22 23 23 24 24 25 25 26 26 27 27 27 28 28 28 28 30 30 30 30 30 25 22 25 27 29 29 30 29 29 27 26 25 25 24 23 23
19 19 19 20 20 21 22 22 22 23 23 24 24 25 26 26 27 27 28 27 28 28 28 29 30 29 30 31 30 26 24 25 27 28 30 30 29 29 26 24 25 24 24 23 23
18 19 19 20 20 21 22 22 23 23 23 24 24 25 26 26 26 27 28 28 28 28 29 29 29 29 29 28 31 29 29 28 31 32 32 29 29 28 29 27 26 26 24 24 23
18 19 19 20 20 21 22 22 23 23 24 24 24 25 26 26 27 27 28 28 28 29 28 28 29 29 28 29 29 28 31 31 32 34 34 31 30 29 29 28 25 25 24 24 24
18 18 19 20 20 21 22 22 23 23 24 24 24 25 25 24 27 27 28 28 28 28 29 29 29 30 30 29 29 31 32 32 34 33 33 31 29 30 28 27 25 25 25 24 24
18 18 19 20 21 21 22 22 23 24 24 24 24 25 25 28 27 27 28 28 28 28 29 29 29 30 29 28 31 32 31 29 31 32 31 31 29 27 28 27 25 25 25 25 25
17 18 19 20 21 21 22 23 23 24 24 24 24 24 26 27 27 27 27 28 28 28 29 29 29 29 29 30 30 28 27 27 29 30 33 30 27 28 27 26 26 25 25 25 25
17 18 18 19 20 21 22 23 24 24 24 24 24 23 26 27 27 27 27 28 28 28 29 29 29 29 29 26 23 23 26 27 28 30 31 30 28 29 27 27 26 26 25 26 25
17 17 18 19 20 21 22 23 24 24 24 24 24 23 27 28 28 28 27 28 28 29 29 29 29 24 22 22 23 26 27 28 28 31 31 29 29 29 29 27 26 26 26 26 26
16 17 18 19 20 21 23 23 24 23 23 24 24 24 27 28 28 28 28 28 28 28 26 28 24 23 24 24 26 27 28 28 30 31 31 30 30 29 29 29 27 26 26 27 26
16 17 18 19 20 21 21 22 22 21 21 24 25 25 26 27 27 28 28 28 28 25 26 24 24 26 27 28 28 30 29 28 29 31 30 30 30 28 27 28 28 27 26 27 26
15 16 18 19 20 21 21 21 22 22 21 23 26 27 28 28 27 29 28 28 27 25 25 24 26 29 28 30 30 28 29 28 28 29 28 28 26 27 28 27 28 27 27 27 26
15 16 17 19 20 20 20 21 21 22 16 20 24 27 28 27 28 29 29 28 27 26 26 26 28 29 29 30 29 28 29 29 29 26 26 26 23 24 23 25 26 26 26 27 26
15 16 16 18 19 20 20 21 22 22 19 26 26 29 29 28 29 29 29 28 26 27 28 26 28 28 30 30 30 27 29 30 29 25 25 25 23 23 23 25 25 25 27 27 26
14 15 16 17 19 19 20 21 22 17 19 25 28 26 25 27 28 29 29 29 29 27 27 26 29 30 28 30 30 31 27 23 21 21 22 24 23 23 25 27 25 25 26 26 26
15 15 17 17 18 18 20 21 16 17 23 26 27 25 24 25 26 27 27 26 25 25 24 26 27 29 32 30 27 27 21 19 22 21 22 23 23 22 25 26 27 25 27 27 26
15 16 17 18 18 18 19 16 18 20 21 25 27 26 24 25 25 27 26 25 24 24 23 24 24 28 30 28 27 26 22 19 23 21 22 23 24 24 24 26 30 30 28 26 26
16 17 18 18 18 18 19 14 16 19 25 24 24 24 24 25 26 25 24 24 25 24 24 23 24 28 29 29 27 27 24 23 22 21 21 21 25 25 24 21 21 25 25 25 25
16 17 18 17 18 18 14 13 17 22 23 22 23 23 24 25 24 23 23 25 26 26 25 24 24 26 29 29 29 27 26 25 19 24 24 21 24 22 22 22 22 21 22 22 21
16 16 18 17 17 17 12 12 19 22 23 22 23 24 24 24 24 22 25 27 26 26 24 22 23 26 28 27 26 26 25 22 20 19 21 21 21 20 19 20 20 21 23 24 24
15 12 17 17 15 13 12 18 20 21 22 22 23 25 25 24 24 24 23 26 29 29 25 22 20 22 28 27 28 25 25 21 20 23 19 19 19 18 18 18 22 25 24 28 25
13 14 17 17 12 12 15 18 20 20 21 22 22 24 24 25 24 23 24 27 28 27 25 23 21 22 23 23 25 28 26 23 19 18 22 21 18 18 17 19 25 26 28 28 25
12 11 17 17 17 16 16 17 18 22 22 23 23 24 23 23 23 23 24 27 27 27 26 24 19 22 21 24 24 26 26 26 21 20 21 20 17 16 17 18 18 22 25 21 23
12 12 13 11 14 15 16 17 18 19 22 24 23 23 22 23 21 21 22 22 25 25 26 21 21 24 23 25 26 26 26 25 25 23 24 23 20 18 16 15 17 17 19 21 21
12 11 12 12 14 14 13 17 19 19 21 21 23 23 19 18 19 20 20 21 22 21 21 18 21 23 22 25 24 25 25 26 26 26 24 21 21 16 16 16 18 18 19 19 19
11 11 11 13 12 13 14 16 20 21 22 23 21 19 18 19 21 22 21 22 22 22 20 19 19 19 23 24 23 22 25 26 23 22 23 23 19 16 15 16 17 17 20 21 20
Height
1539 1538 1537 1536 1535 1534 1533 1530 1528 1527 1524 1522 1521 1519 1516 1515 1513 1512 1513 1513 1511 1511 1511 1512 1514 1514 1515 1514 1513 1508 1516 1524 1518 1516 1512 1507 1506 1511 1513 1514 1518 1518 1520 1529 1532
1539 1538 1537 1536 1535 1534 1532 1530 1528 1526 1524 1522 1521 1518 1516 1514 1513 1512 1513 1510 1509 1510 1510 1512 1512 1511 1512 1515 1513 1512 1526 1520 1507 1506 1511 1505 1505 1509 1514 1516 1519 1519 1526 1530 1533
1539 1537 1537 1536 1535 1533 1531 1529 1527 1525 1523 1521 1520 1518 1516 1514 1513 1512 1512 1510 1509 1509 1510 1512 1512 1514 1514 1512 1513 1513 1521 1508 1505 1504 1508 1507 1507 1509 1512 1519 1514 1518 1524 1530 1533
1538 1537 1536 1535 1533 1532 1530 1528 1526 1524 1523 1521 1519 1517 1515 1515 1518 1513 1512 1511 1509 1510 1511 1512 1514 1514 1514 1513 1506 1512 1507 1506 1501 1502 1502 1504 1508 1509 1508 1510 1512 1515 1521 1527 1532
1538 1536 1535 1534 1532 1531 1529 1527 1525 1523 1521 1520 1518 1517 1515 1514 1514 1513 1513 1513 1511 1510 1511 1511 1512 1512 1511 1509 1506 1510 1501 1501 1501 1500 1499 1504 1503 1505 1509 1512 1517 1520 1525 1528 1532
1537 1536 1534 1532 1531 1529 1527 1525 1523 1522 1520 1519 1517 1516 1515 1516 1514 1513 1513 1514 1513 1511 1511 1511 1512 1511 1509 1508 1508 1504 1501 1499 1497 1500 1500 1500 1504 1505 1511 1513 1517 1519 1523 1526 1530
1536 1534 1532 1531 1529 1527 1525 1524 1522 1521 1520 1518 1516 1514 1513 1513 1512 1512 1514 1514 1513 1511 1511 1511 1511 1511 1510 1506 1503 1501 1503 1501 1498 1498 1501 1499 1508 1506 1505 1512 1515 1518 1520 1524 1526
1535 1533 1531 1529 1527 1525 1523 1522 1520 1519 1518 1516 1515 1513 1510 1510 1510 1511 1513 1513 1512 1511 1512 1512 1511 1510 1510 1508 1504 1507 1509 1521 1500 1497 1497 1499 1520 1504 1506 1509 1513 1516 1518 1521 1524
1533 1531 1529 1528 1525 1523 1521 1520 1519 1518 1516 1515 1514 1512 1508 1508 1508 1510 1512 1512 1511 1512 1512 1513 1513 1512 1509 1514 1525 1521 1531 1522 1506 1490 1493 1499 1511 1503 1507 1507 1510 1513 1515 1518 1523
1531 1529 1527 1525 1524 1522 1520 1518 1516 1515 1514 1513 1513 1514 1507 1506 1506 1507 1510 1511 1511 1512 1513 1513 1513 1515 1515 1525 1547 1532 1523 1513 1511 1497 1495 1503 1503 1499 1501 1505 1507 1510 1513 1516 1519
1528 1526 1525 1524 1523 1520 1519 1516 1518 1517 1513 1511 1510 1509 1505 1506 1505 1507 1509 1510 1510 1511 1514 1511 1520 1527 1516 1516 1514 1514 1513 1515 1501 1493 1496 1499 1499 1497 1501 1504 1507 1507 1509 1513 1517
1527 1525 1523 1523 1521 1520 1519 1519 1521 1522 1513 1507 1505 1505 1502 1505 1507 1505 1508 1511 1509 1514 1512 1517 1524 1507 1507 1507 1508 1505 1512 1514 1502 1494 1500 1499 1498 1496 1495 1496 1498 1503 1507 1512 1518
1525 1522 1520 1520 1519 1519 1519 1520 1520 1519 1515 1500 1499 1499 1499 1503 1502 1502 1506 1507 1509 1512 1512 1521 1508 1502 1505 1503 1507 1511 1513 1512 1514 1501 1500 1503 1513 1503 1498 1494 1498 1501 1505 1509 1513
1523 1520 1519 1518 1521 1518 1518 1518 1517 1518 1527 1504 1493 1490 1496 1500 1499 1499 1502 1506 1507 1510 1508 1511 1498 1501 1503 1502 1504 1516 1502 1504 1506 1516 1533 1508 1549 1513 1502 1494 1498 1503 1505 1507 1511
1521 1519 1517 1516 1516 1517 1518 1516 1516 1517 1547 1487 1485 1484 1486 1494 1493 1493 1497 1503 1504 1504 1507 1510 1500 1503 1502 1500 1498 1510 1498 1501 1502 1518 1521 1523 1539 1522 1505 1505 1506 1504 1505 1508 1511
1519 1516 1515 1515 1515 1517 1516 1516 1517 1531 1540 1491 1480 1482 1488 1491 1492 1493 1495 1499 1500 1502 1503 1503 1497 1495 1495 1492 1493 1494 1503 1510 1519 1529 1555 1529 1535 1532 1515 1503 1502 1505 1508 1510 1513
1516 1514 1513 1513 1514 1515 1516 1517 1533 1542 1498 1491 1485 1481 1485 1491 1492 1492 1497 1501 1508 1518 1520 1503 1498 1491 1489 1495 1495 1500 1526 1562 1558 1562 1562 1526 1535 1527 1504 1497 1494 1502 1507 1508 1511
1512 1510 1509 1510 1512 1514 1516 1520 1534 1511 1505 1487 1485 1485 1493 1488 1490 1491 1497 1503 1500 1506 1520 1524 1526 1494 1487 1494 1506 1508 1521 1559 1564 1569 1553 1525 1538 1522 1501 1497 1493 1495 1499 1505 1509
1509 1507 1506 1508 1509 1513 1516 1534 1525 1508 1493 1494 1488 1492 1493 1487 1487 1491 1497 1501 1496 1499 1520 1524 1518 1487 1489 1489 1494 1506 1523 1511 1539 1542 1553 1543 1519 1509 1504 1507 1504 1506 1508 1508 1509
1507 1504 1505 1507 1508 1512 1517 1524 1511 1498 1495 1494 1501 1493 1496 1488 1495 1496 1498 1487 1492 1489 1491 1503 1523 1491 1484 1479 1488 1497 1499 1526 1544 1552 1553 1551 1532 1536 1522 1515 1505 1513 1514 1514 1517
1507 1505 1506 1507 1510 1512 1523 1518 1502 1496 1498 1500 1498 1495 1492 1492 1488 1495 1490 1481 1480 1482 1486 1497 1509 1500 1489 1495 1501 1503 1510 1518 1528 1542 1559 1564 1552 1526 1521 1515 1511 1516 1512 1514 1518
1508 1508 1507 1509 1512 1512 1516 1505 1501 1496 1496 1497 1489 1487 1489 1486 1486 1487 1488 1476 1472 1474 1489 1489 1506 1521 1499 1487 1486 1493 1499 1513 1542 1538 1541 1547 1551 1523 1517 1510 1506 1503 1506 1503 1507
1510 1509 1511 1511 1517 1516 1507 1504 1501 1498 1495 1495 1493 1486 1484 1486 1492 1487 1483 1474 1468 1469 1480 1484 1507 1525 1516 1503 1493 1493 1495 1501 1517 1525 1530 1546 1550 1524 1518 1508 1502 1498 1497 1496 1502
1512 1513 1510 1511 1510 1510 1510 1505 1502 1493 1489 1491 1490 1483 1484 1486 1485 1489 1486 1477 1473 1471 1473 1475 1501 1507 1529 1514 1505 1505 1499 1497 1511 1529 1527 1528 1537 1532 1521 1511 1509 1506 1504 1508 1505
1514 1514 1515 1515 1509 1508 1507 1504 1501 1499 1486 1483 1485 1486 1489 1489 1491 1495 1488 1484 1477 1475 1474 1480 1502 1496 1500 1495 1496 1497 1497 1498 1504 1504 1514 1509 1516 1516 1517 1524 1521 1520 1515 1513 1512
1517 1518 1516 1512 1509 1505 1501 1501 1498 1494 1491 1486 1483 1484 1486 1499 1498 1498 1494 1492 1491 1483 1483 1485 1502 1494 1504 1492 1496 1500 1495 1492 1493 1494 1502 1506 1512 1518 1528 1527 1524 1521 1517 1513 1516
1519 1519 1518 1511 1510 1508 1508 1504 1492 1489 1485 1484 1481 1484 1491 1492 1491 1489 1490 1490 1489 1487 1490 1493 1499 1510 1513 1498 1501 1516 1497 1496 1502 1502 1501 1509 1511 1521 1524 1522 1518 1515 1513 1509 1510
Wind_Speed
7 7 8 8 9 9 10 10 10 11 11 12 12 12 12 10 6 1 2 4 6 4 3 5 6 7 4 2 2 8 4 3 2 3 4 17 11 12 14 23 7 9 26 31 26
7 8 8 9 9 9 10 10 10 11 12 12 13 12 12 9 3 2 7 7 6 1 3 2 7 6 5 2 12 4 3 8 5 1 5 15 23 15 9 17 13 24 29 32 28
8 9 9 10 10 10 10 11 10 11 11 12 13 13 12 9 1 4 7 6 3 3 4 3 6 7 3 5 10 6 5 6 10 21 16 11 16 7 21 0 27 34 38 36 29
10 10 10 11 11 11 11 11 10 10 11 12 13 12 11 5 2 4 7 6 5 7 4 6 10 4 4 5 18 4 12 10 7 10 16 10 9 8 9 11 29 30 36 37 32
11 11 12 12 11 12 11 11 11 10 11 11 12 11 9 3 2 4 5 5 6 3 6 15 9 8 4 8 4 4 4 11 10 7 6 19 12 9 8 19 30 30 33 32 31
12 12 13 13 13 12 12 11 10 10 10 10 11 10 7 2 1 5 1 5 4 5 9 15 6 12 8 4 3 7 4 6 4 5 5 7 6 15 14 32 32 32 34 32 29
13 14 13 13 14 13 12 12 11 10 9 9 9 10 7 6 2 5 2 4 2 7 8 11 12 9 13 8 17 5 3 7 12 2 4 22 4 8 34 36 32 34 34 33 31
13 14 14 14 14 14 13 13 11 10 9 9 8 9 6 2 5 7 3 4 7 3 3 8 12 11 5 9 11 6 5 2 9 3 8 3 6 2 35 34 31 32 34 33 32
13 14 14 14 14 14 13 13 11 10 9 8 6 5 6 5 12 13 8 4 2 4 4 4 10 4 6 3 6 6 5 6 10 15 6 4 4 6 30 31 29 31 32 33 32
14 14 13 14 14 14 11 12 9 9 8 8 8 6 4 5 6 8 11 6 5 5 6 5 3 3 4 5 3 5 5 3 5 3 5 2 5 5 29 28 29 30 31 31 33
14 15 13 12 12 12 8 2 4 1 13 8 5 13 13 1 5 4 7 5 6 6 2 3 3 6 9 7 8 6 1 5 3 4 4 5 4 8 15 18 20 26 31 32 32
14 14 13 10 8 8 4 6 8 8 11 14 17 22 21 9 8 7 11 7 3 4 2 5 6 11 6 8 6 3 3 6 4 4 1 4 5 6 10 19 30 29 30 34 29
13 13 12 8 5 2 4 9 6 12 4 14 16 19 21 10 14 10 13 13 2 3 6 6 10 3 6 4 3 4 3 4 8 2 4 4 8 7 3 10 23 28 33 35 32
13 12 12 5 2 1 5 5 4 6 4 8 7 14 22 16 8 19 16 13 5 8 4 6 12 8 8 2 4 2 2 3 4 5 1 4 4 6 9 6 13 19 30 35 33
13 12 8 6 3 3 2 1 2 2 2 4 5 7 18 15 3 9 22 22 6 9 4 7 6 4 3 5 4 8 1 4 3 4 5 9 4 7 6 7 2 11 27 30 32
13 13 9 8 7 5 3 4 2 5 5 5 7 8 8 13 12 3 16 23 11 3 2 11 11 4 7 3 2 1 5 8 6 3 4 5 4 5 1 4 5 7 15 21 27
13 13 11 10 4 5 1 3 5 3 5 4 2 7 10 8 9 5 3 7 5 2 4 7 5 5 4 3 7 5 7 4 4 4 5 1 2 8 5 7 9 11 18 24 27
13 13 12 10 8 6 4 5 3 6 6 5 4 1 6 6 7 7 6 8 4 5 2 3 7 5 2 7 7 4 8 6 4 3 5 5 3 5 5 9 6 12 15 25 27
14 11 8 5 11 11 5 3 7 6 2 7 9 5 7 5 5 7 8 7 10 8 7 4 6 3 6 5 9 2 3 6 5 1 3 3 4 5 9 14 24 15 12 27 29
13 6 5 6 12 11 4 6 5 3 6 5 2 4 3 9 6 7 8 7 7 13 13 6 4 5 8 8 3 8 4 2 3 1 2 5 2 3 6 3 9 13 12 9 6
7 4 8 9 15 7 4 7 5 11 12 6 4 4 3 2 4 6 9 6 12 10 15 7 4 11 3 1 7 1 2 6 5 5 5 2 5 6 6 3 5 8 20 15 5
3 2 12 12 3 2 2 4 9 9 7 6 5 3 3 2 3 4 8 10 22 14 9 10 6 4 6 5 2 4 6 6 5 5 2 5 4 7 5 7 7 6 14 11 6
10 3 16 14 1 2 5 5 8 4 7 5 5 5 2 2 3 3 5 8 3 7 9 7 2 1 7 7 7 2 3 4 5 3 4 5 4 4 6 11 20 21 18 24 10
4 3 1 12 9 1 4 5 5 11 17 11 6 3 5 5 4 4 6 4 7 6 7 6 4 8 7 6 4 2 7 3 6 3 3 6 7 7 9 9 7 13 13 8 3
5 2 6 2 5 5 5 5 5 4 5 7 1 3 2 2 5 6 5 7 6 14 5 4 4 3 5 4 2 1 5 9 4 6 6 5 13 20 12 2 8 12 14 13 6
5 6 9 8 12 6 6 4 10 8 2 6 2 4 8 5 3 3 5 5 1 7 5 6 1 2 6 6 7 4 7 5 5 3 4 5 5 11 10 4 4 5 8 12 12
7 5 3 7 8 6 4 9 11 6 6 2 3 6 6 1 7 10 7 4 3 2 5 3 3 3 3 3 6 6 3 2 6 3 2 3 5 16 10 11 7 7 4 4 10
Wind_Direction
3 3 0 359 358 351 353 358 360 353 352 347 345 344 338 339 328 170 359 323 322 319 337 116 83 24 320 197 203 160 77 97 222 306 287 140 115 89 134 136 163 195 149 156 160
350 349 350 346 345 344 345 349 352 352 347 344 342 343 340 344 350 278 344 342 337 342 131 32 82 22 355 147 175 91 92 221 209 101 213 153 127 136 112 109 101 118 141 156 160
338 338 337 334 336 335 340 340 345 348 345 342 340 341 341 343 6 354 346 356 5 102 109 16 20 11 334 259 186 163 181 206 265 252 205 151 149 114 123 71 151 144 151 161 168
329 327 327 327 330 330 332 333 338 342 339 340 337 339 343 349 124 357 10 23 78 110 72 13 359 318 220 233 230 199 205 170 245 168 131 159 145 141 174 186 166 158 161 168 174
321 321 322 321 322 323 324 326 329 332 333 336 334 341 346 351 291 351 1 54 112 87 13 354 345 349 332 315 108 270 312 229 264 147 140 145 199 159 199 161 160 156 164 174 181
318 317 316 316 316 315 315 317 320 321 326 327 329 335 332 290 228 343 295 87 47 7 6 8 321 333 297 298 146 273 343 315 333 223 205 113 146 141 146 159 161 164 170 182 187
316 316 315 311 311 311 310 309 309 309 313 314 321 326 302 274 241 309 306 177 158 347 349 16 345 331 331 320 335 323 6 343 304 314 143 113 85 172 163 166 162 173 177 184 192
315 314 314 313 309 306 305 303 300 300 298 303 310 311 270 183 245 271 296 168 63 18 337 360 333 309 276 312 351 11 49 340 268 214 224 117 219 226 169 164 172 180 184 189 194
314 314 314 314 311 305 303 297 295 289 284 289 296 306 273 214 230 259 252 180 312 327 279 312 313 295 323 53 8 356 260 225 302 193 155 134 218 195 176 174 177 183 188 193 193
315 313 313 315 313 308 310 299 297 287 284 281 264 299 241 252 278 247 224 219 296 246 282 268 262 4 9 70 226 259 304 271 224 238 149 120 209 198 178 178 180 187 190 193 190
315 313 313 315 313 313 336 18 3 312 322 258 255 279 275 312 144 177 159 227 253 289 205 286 57 236 236 189 219 247 290 331 327 234 122 209 188 198 181 181 181 188 190 190 188
314 311 312 313 308 307 22 49 31 341 298 274 265 262 253 258 281 215 205 196 189 241 337 1 248 247 243 274 211 28 355 314 320 354 25 230 289 197 165 184 184 183 179 180 177
315 313 310 309 298 292 68 30 11 341 288 287 251 243 240 236 223 223 204 203 203 249 236 183 249 316 254 256 44 326 262 303 258 341 11 61 331 340 319 185 185 183 180 180 177
319 316 312 307 209 185 73 42 43 334 40 273 215 230 225 227 252 234 223 200 211 223 238 231 261 242 255 179 140 257 203 255 42 59 287 56 285 322 317 185 176 165 177 184 183
320 312 310 298 216 153 322 140 132 132 10 230 202 215 196 180 147 230 215 205 211 241 67 259 304 301 198 207 141 236 303 306 19 67 43 347 62 275 345 60 60 180 187 187 190
319 308 301 281 232 204 240 206 123 50 254 301 166 148 111 205 228 41 183 204 231 247 248 259 287 251 210 200 217 189 49 30 46 69 15 242 123 283 212 209 168 182 187 192 192
319 301 289 261 189 198 169 158 56 151 318 300 180 160 172 189 225 184 185 180 178 92 307 315 293 292 228 34 3 73 57 358 357 19 219 33 90 241 269 212 174 150 186 194 192
322 298 279 254 228 183 186 57 143 226 262 297 312 357 206 159 228 196 175 196 268 113 35 212 319 197 249 169 184 199 144 151 198 204 252 324 243 267 314 307 165 177 184 179 185
329 304 279 224 192 179 164 97 207 214 311 350 318 195 223 226 185 171 193 195 194 165 171 179 271 328 300 212 135 231 141 191 120 2 54 276 332 342 26 24 37 51 149 176 183
340 320 182 141 171 169 89 226 234 250 3 12 324 27 251 213 164 162 191 197 207 196 173 226 282 261 293 128 101 154 173 46 8 122 283 318 206 236 27 325 83 49 79 88 121
353 4 142 134 155 155 169 235 287 309 4 16 315 329 309 6 208 195 210 234 193 209 175 155 133 274 21 104 170 320 307 60 119 134 164 183 270 301 184 146 113 157 101 116 109
18 37 151 156 98 178 200 227 330 302 339 282 245 237 235 337 358 17 223 200 211 200 173 196 168 183 220 280 196 178 210 141 125 266 180 150 262 310 231 174 160 161 154 158 196
343 308 178 194 163 272 281 291 270 276 277 279 330 302 357 7 39 28 355 344 89 187 164 169 224 272 344 353 1 18 297 146 100 78 199 137 239 288 235 163 161 163 174 205 188
360 12 151 220 261 318 321 267 266 288 260 249 258 287 4 45 38 316 349 325 18 68 59 125 120 162 184 192 205 355 340 80 125 115 183 203 150 229 234 195 235 192 222 238 71
26 349 12 305 289 260 199 289 315 318 281 262 71 89 26 353 28 7 359 335 14 3 31 93 109 120 161 144 100 249 343 332 275 210 166 251 163 187 196 216 241 312 307 303 325
30 16 341 288 297 299 133 247 246 263 279 309 49 50 74 95 134 290 10 27 332 334 42 349 151 96 9 32 51 351 338 320 307 4 87 136 83 94 111 169 159 268 310 296 272
16 356 331 308 341 22 355 324 295 291 287 336 340 107 74 93 315 298 301 309 343 77 30 50 91 69 293 352 36 2 294 11 65 26 148 193 117 137 163 165 173 159 161 306 267